Location: Cremona
(45.1170°N, 10.0330°E)
Time: 06:16:35
(UTC+01:00)

ISS - Pass Details

Date: 26 January 2019
Orbit: 403 x 411 km, 51.6° (Epoch: 17 February)

Event Time Altitude Azimuth Distance (km) Brightness Sun altitude
Rises 19:11:39 0° 259° (W) 2,330 1.7 -19.9°
Reaches altitude 10° 19:13:47 10° 267° (W) 1,473 0.2 -20.3°
Enters shadow 19:16:57 42° 340° (NNW) 600 -3.0 -20.8°
